| time (UTC) | temp C | wind direction | speed KPH | gust KPH | rain 1hr cm | rain 24hr cm | rain mn cm | humidity % | barometer mb |
| 20260509135059 | 15 | 201 | 3.2 | 8.0 | 0.00 | 0.00 | 0.00 | 76 | 1003.3 |
| 20260509134016 | 14 | 225 | 4.8 | 11.3 | 0.00 | 0.00 | 0.00 | 77 | 1003.3 |
| 20260509133036 | 14 | 236 | 4.8 | 11.3 | 0.00 | 0.00 | 0.00 | 77 | 1003.5 |
| 20260509132017 | 14 | 273 | 4.8 | 9.7 | 0.00 | 0.00 | 0.00 | 78 | 1003.6 |
| 20260509131017 | 14 | 198 | 4.8 | 16.1 | 0.00 | 0.00 | 0.00 | 78 | 1003.6 |
| 20260509130020 | 13 | 258 | 3.2 | 9.7 | 0.00 | 0.00 | 0.00 | 79 | 1003.5 |
| 20260509125017 | 13 | 236 | 3.2 | 11.3 | 0.00 | 0.00 | 0.00 | 79 | 1003.5 |
| 20260509124017 | 13 | 213 | 3.2 | 9.7 | 0.00 | 0.00 | 0.00 | 81 | 1003.5 |
| 20260509123020 | 12 | 162 | 3.2 | 6.4 | 0.00 | 0.00 | 0.00 | 83 | 1003.5 |
| 20260509122021 | 12 | 216 | 4.8 | 8.0 | 0.00 | 0.00 | 0.00 | 84 | 1003.6 |
| 20260509121021 | 12 | 253 | 3.2 | 6.4 | 0.00 | 0.00 | 0.00 | 86 | 1003.6 |
| 20260509120021 | 12 | 175 | 3.2 | 6.4 | 0.00 | 0.00 | 0.00 | 87 | 1003.5 |
| 20260509115021 | 12 | 204 | 4.8 | 9.7 | 0.00 | 0.00 | 0.00 | 89 | 1003.4 |
| 20260509114021 | 12 | 227 | 3.2 | 4.8 | 0.00 | 0.00 | 0.00 | 89 | 1003.3 |
| 20260509113021 | 12 | 210 | 3.2 | 8.0 | 0.00 | 0.00 | 0.00 | 89 | 1003.2 |
| 20260509112022 | 12 | 225 | 3.2 | 6.4 | 0.00 | 0.00 | 0.00 | 89 | 1003.3 |
| 20260509111022 | 12 | 282 | 4.8 | 8.0 | 0.00 | 0.00 | 0.00 | 88 | 1003.2 |
| 20260509105022 | 12 | 247 | 3.2 | 4.8 | 0.00 | 0.00 | 0.00 | 88 | 1003.0 |
| 20260509104022 | 12 | 222 | 3.2 | 6.4 | 0.00 | 0.00 | 0.00 | 87 | 1002.9 |
| 20260509103022 | 12 | 250 | 3.2 | 6.4 | 0.00 | 0.00 | 0.00 | 87 | 1002.9 |
| 20260509102103 | 12 | 225 | 3.2 | 4.8 | 0.00 | 0.00 | 0.00 | 88 | 1002.9 |
| 20260509101023 | 12 | 152 | 3.2 | 8.0 | 0.00 | 0.00 | 0.00 | 88 | 1003.0 |
| 20260509100023 | 12 | 195 | 3.2 | 6.4 | 0.00 | 0.00 | 0.00 | 88 | 1003.1 |
| 20260509095023 | 12 | 200 | 3.2 | 6.4 | 0.00 | 0.00 | 0.00 | 88 | 1003.3 |
| 20260509094023 | 12 | 237 | 3.2 | 6.4 | 0.00 | 0.00 | 0.00 | 88 | 1003.5 |
| 20260509093023 | 12 | 206 | 3.2 | 4.8 | 0.00 | 0.00 | 0.00 | 88 | 1003.6 |
| 20260509092023 | 12 | 174 | 3.2 | 4.8 | 0.00 | 0.00 | 0.00 | 88 | 1003.5 |
| 20260509091023 | 12 | 231 | 3.2 | 6.4 | 0.00 | 0.00 | 0.00 | 88 | 1003.6 |
| 20260509090044 | 12 | 199 | 3.2 | 4.8 | 0.00 | 0.00 | 0.00 | 88 | 1003.7 |
| 20260509085044 | 12 | 215 | 3.2 | 4.8 | 0.00 | 0.00 | 0.00 | 88 | 1003.8 |
| 20260509084024 | 12 | 206 | 4.8 | 8.0 | 0.00 | 0.00 | 0.00 | 88 | 1003.8 |
| 20260509083018 | 12 | 236 | 3.2 | 9.7 | 0.00 | 0.00 | 0.00 | 87 | 1003.8 |
| 20260509082025 | 12 | 222 | 3.2 | 6.4 | 0.00 | 0.00 | 0.00 | 87 | 1003.7 |
| 20260509081019 | 12 | 205 | 3.2 | 9.7 | 0.00 | 0.00 | 0.00 | 87 | 1003.7 |
| 20260509080019 | 12 | 231 | 3.2 | 6.4 | 0.00 | 0.00 | 0.00 | 86 | 1003.7 |
| 20260509075017 | 12 | 219 | 3.2 | 8.0 | 0.00 | 0.00 | 0.00 | 86 | 1003.8 |
| 20260509074036 | 12 | 209 | 3.2 | 4.8 | 0.00 | 0.00 | 0.00 | 85 | 1003.9 |
| 20260509073017 | 12 | 218 | 3.2 | 8.0 | 0.00 | 0.00 | 0.00 | 85 | 1004.0 |
| 20260509072017 | 12 | 237 | 3.2 | 8.0 | 0.00 | 0.00 | 0.00 | 85 | 1004.2 |
| 20260509071017 | 12 | 233 | 3.2 | 4.8 | 0.00 | 0.00 | 0.00 | 85 | 1004.3 |
| 20260509070017 | 12 | 233 | 3.2 | 6.4 | 0.00 | 0.00 | 0.00 | 84 | 1004.5 |
| 20260509065037 | 12 | 236 | 3.2 | 9.7 | 0.00 | 0.00 | 0.00 | 84 | 1004.5 |
| 20260509064018 | 12 | 221 | 3.2 | 6.4 | 0.00 | 0.00 | 0.00 | 84 | 1004.6 |
| 20260509063018 | 13 | 242 | 3.2 | 8.0 | 0.00 | 0.00 | 0.00 | 84 | 1004.6 |
| 20260509062018 | 13 | 223 | 3.2 | 9.7 | 0.00 | 0.00 | 0.00 | 83 | 1004.7 |
| 20260509061038 | 13 | 203 | 3.2 | 6.4 | 0.00 | 0.00 | 0.00 | 83 | 1004.9 |
| 20260509060018 | 13 | 211 | 3.2 | 9.7 | 0.00 | 0.00 | 0.00 | 83 | 1005.0 |
| 20260509055018 | 13 | 190 | 3.2 | 8.0 | 0.00 | 0.00 | 0.00 | 82 | 1005.0 |
| 20260509054018 | 13 | 231 | 3.2 | 6.4 | 0.00 | 0.00 | 0.00 | 82 | 1005.0 |
| 20260509053019 | 13 | 240 | 3.2 | 8.0 | 0.00 | 0.00 | 0.00 | 81 | 1005.0 |
| 20260509052039 | 13 | 261 | 3.2 | 6.4 | 0.00 | 0.00 | 0.00 | 81 | 1004.9 |
| 20260509051016 | 13 | 200 | 3.2 | 9.7 | 0.00 | 0.00 | 0.00 | 80 | 1005.0 |
| 20260509050016 | 13 | 212 | 3.2 | 8.0 | 0.00 | 0.00 | 0.00 | 79 | 1005.0 |
| 20260509045036 | 13 | 186 | 3.2 | 6.4 | 0.00 | 0.00 | 0.00 | 79 | 1004.9 |
| 20260509044020 | 13 | 198 | 3.2 | 6.4 | 0.00 | 0.00 | 0.00 | 79 | 1005.2 |
| 20260509043020 | 13 | 211 | 3.2 | 6.4 | 0.00 | 0.00 | 0.00 | 78 | 1005.2 |
| 20260509042017 | 13 | 248 | 3.2 | 6.4 | 0.00 | 0.00 | 0.00 | 78 | 1005.1 |
| 20260509041017 | 13 | 139 | 1.6 | 4.8 | 0.00 | 0.00 | 0.00 | 77 | 1005.0 |
| 20260509040017 | 13 | 201 | 3.2 | 6.4 | 0.00 | 0.00 | 0.00 | 78 | 1005.1 |
| 20260509035017 | 13 | 167 | 1.6 | 6.4 | 0.00 | 0.00 | 0.00 | 77 | 1005.3 |
| 20260509034017 | 12 | 193 | 3.2 | 8.0 | 0.00 | 0.00 | 0.00 | 79 | 1005.3 |
| 20260509033018 | 11 | 133 | 1.6 | 4.8 | 0.00 | 0.00 | 0.00 | 80 | 1005.3 |
| 20260509032018 | 11 | 89 | 1.6 | 4.8 | 0.00 | 0.00 | 0.00 | 81 | 1005.3 |
| 20260509031018 | 11 | 43 | 1.6 | 4.8 | 0.00 | 0.00 | 0.00 | 81 | 1005.4 |
| 20260509030018 | 11 | 88 | 1.6 | 3.2 | 0.00 | 0.00 | 0.00 | 80 | 1005.4 |
| 20260509025018 | 11 | 57 | 1.6 | 3.2 | 0.00 | 0.00 | 0.00 | 79 | 1005.5 |
| 20260509024018 | 11 | 71 | 3.2 | 4.8 | 0.00 | 0.00 | 0.00 | 78 | 1005.6 |
| 20260509023039 | 11 | 77 | 3.2 | 3.2 | 0.00 | 0.00 | 0.00 | 78 | 1005.6 |
| 20260509022016 | 11 | 73 | 3.2 | 4.8 | 0.00 | 0.00 | 0.00 | 77 | 1005.7 |
| 20260509021019 | 11 | 77 | 3.2 | 4.8 | 0.00 | 0.00 | 0.00 | 77 | 1005.7 |
| 20260509020019 | 11 | 81 | 3.2 | 4.8 | 0.00 | 0.00 | 0.00 | 76 | 1005.8 |
| 20260509015019 | 11 | 85 | 3.2 | 4.8 | 0.00 | 0.00 | 0.00 | 76 | 1005.7 |
| 20260509014040 | 11 | 77 | 3.2 | 4.8 | 0.00 | 0.00 | 0.00 | 75 | 1005.7 |
| 20260509013016 | 11 | 83 | 1.6 | 4.8 | 0.00 | 0.00 | 0.00 | 74 | 1005.7 |
| 20260509012016 | 11 | 78 | 3.2 | 4.8 | 0.00 | 0.00 | 0.00 | 72 | 1005.6 |
| 20260509011017 | 12 | 68 | 1.6 | 4.8 | 0.00 | 0.00 | 0.00 | 70 | 1005.6 |
| 20260509010017 | 12 | 82 | 3.2 | 6.4 | 0.00 | 0.00 | 0.00 | 68 | 1005.7 |
| 20260509005017 | 12 | 74 | 3.2 | 6.4 | 0.00 | 0.00 | 0.00 | 66 | 1005.7 |
| 20260509004017 | 12 | 90 | 3.2 | 8.0 | 0.00 | 0.00 | 0.00 | 64 | 1005.6 |
| 20260509003017 | 12 | 75 | 3.2 | 4.8 | 0.00 | 0.00 | 0.00 | 62 | 1005.7 |
| 20260509002138 | 13 | 85 | 3.2 | 6.4 | 0.00 | 0.00 | 0.00 | 60 | 1005.8 |
| 20260509001018 | 13 | 71 | 3.2 | 4.8 | 0.00 | 0.00 | 0.00 | 59 | 1005.8 |
| 20260509000018 | 13 | 71 | 3.2 | 8.0 | 0.00 | 0.00 | 0.00 | 57 | 1005.8 |
| 20260508235058 | 14 | 69 | 3.2 | 6.4 | 0.00 | 0.00 | 0.00 | 55 | 1006.0 |
| 20260508234018 | 15 | 78 | 4.8 | 9.7 | 0.00 | 0.00 | 0.00 | 52 | 1006.0 |
| 20260508233018 | 15 | 81 | 4.8 | 11.3 | 0.00 | 0.00 | 0.00 | 52 | 1006.0 |
| 20260508232019 | 16 | 77 | 4.8 | 12.9 | 0.00 | 0.00 | 0.00 | 50 | 1006.1 |
| 20260508231018 | 16 | 78 | 3.2 | 8.0 | 0.00 | 0.00 | 0.00 | 49 | 1006.2 |
| 20260508230019 | 16 | 75 | 3.2 | 11.3 | 0.00 | 0.00 | 0.00 | 48 | 1006.2 |
| 20260508225016 | 16 | 72 | 3.2 | 9.7 | 0.00 | 0.00 | 0.00 | 47 | 1006.3 |
| 20260508224016 | 16 | 80 | 4.8 | 9.7 | 0.00 | 0.00 | 0.00 | 47 | 1006.3 |
| 20260508223017 | 15 | 74 | 4.8 | 12.9 | 0.00 | 0.00 | 0.00 | 49 | 1006.3 |
| 20260508222019 | 15 | 83 | 4.8 | 9.7 | 0.00 | 0.00 | 0.00 | 52 | 1006.3 |
| 20260508221020 | 15 | 91 | 3.2 | 9.7 | 0.00 | 0.00 | 0.00 | 56 | 1006.4 |
| 20260508220017 | 15 | 80 | 4.8 | 14.5 | 0.00 | 0.00 | 0.00 | 56 | 1006.5 |
| 20260508215017 | 15 | 76 | 4.8 | 12.9 | 0.00 | 0.00 | 0.00 | 58 | 1006.6 |
| 20260508214017 | 15 | 76 | 4.8 | 14.5 | 0.00 | 0.00 | 0.00 | 53 | 1006.5 |
| 20260508213038 | 16 | 78 | 6.4 | 14.5 | 0.00 | 0.08 | 0.00 | 52 | 1006.7 |
| 20260508212017 | 16 | 90 | 3.2 | 9.7 | 0.00 | 0.13 | 0.00 | 54 | 1006.7 |
| 20260508211018 | 17 | 89 | 4.8 | 9.7 | 0.00 | 0.13 | 0.00 | 52 | 1006.7 |
| 20260508210018 | 18 | 82 | 4.8 | 12.9 | 0.00 | 0.15 | 0.00 | 49 | 1006.7 |
| 20260508205018 | 17 | 68 | 4.8 | 17.7 | 0.00 | 0.18 | 0.00 | 50 | 1006.9 |
| 20260508204018 | 16 | 80 | 6.4 | 14.5 | 0.00 | 0.18 | 0.00 | 53 | 1007.0 |
| 20260508203038 | 17 | 76 | 6.4 | 16.1 | 0.00 | 0.18 | 0.00 | 52 | 1007.1 |
| 20260508202036 | 17 | 66 | 4.8 | 14.5 | 0.00 | 0.18 | 0.00 | 52 | 1007.3 |
| 20260508201036 | 17 | 81 | 4.8 | 14.5 | 0.00 | 0.18 | 0.00 | 53 | 1007.5 |
| 20260508200019 | 16 | 70 | 4.8 | 12.9 | 0.00 | 0.18 | 0.00 | 56 | 1007.7 |
| 20260508195019 | 16 | 76 | 6.4 | 16.1 | 0.00 | 0.18 | 0.00 | 55 | 1007.8 |
| 20260508194059 | 17 | 71 | 4.8 | 30.6 | 0.00 | 0.18 | 0.00 | 51 | 1007.9 |
| 20260508193016 | 17 | 87 | 4.8 | 14.5 | 0.00 | 0.18 | 0.00 | 52 | 1007.9 |
| 20260508192017 | 16 | 73 | 4.8 | 12.9 | 0.00 | 0.18 | 0.00 | 54 | 1008.0 |
| 20260508191017 | 16 | 78 | 8.0 | 19.3 | 0.00 | 0.18 | 0.00 | 55 | 1008.1 |
| 20260508190017 | 16 | 74 | 6.4 | 16.1 | 0.00 | 0.18 | 0.00 | 56 | 1008.3 |
| 20260508185020 | 16 | 69 | 6.4 | 16.1 | 0.00 | 0.18 | 0.00 | 58 | 1008.5 |
| 20260508184017 | 16 | 78 | 6.4 | 16.1 | 0.00 | 0.18 | 0.00 | 57 | 1008.6 |
| 20260508183017 | 17 | 59 | 8.0 | 19.3 | 0.00 | 0.18 | 0.00 | 53 | 1008.7 |
| 20260508182018 | 17 | 44 | 6.4 | 19.3 | 0.00 | 0.18 | 0.00 | 50 | 1008.7 |
| 20260508181018 | 17 | 74 | 4.8 | 16.1 | 0.00 | 0.18 | 0.00 | 52 | 1008.8 |
| 20260508180018 | 17 | 101 | 4.8 | 30.6 | 0.00 | 0.18 | 0.00 | 55 | 1008.9 |
| 20260508175038 | 17 | 79 | 4.8 | 12.9 | 0.00 | 0.18 | 0.00 | 59 | 1009.2 |
| 20260508174018 | 16 | 80 | 6.4 | 16.1 | 0.00 | 0.18 | 0.00 | 58 | 1009.3 |
| 20260508173038 | 16 | 83 | 4.8 | 12.9 | 0.00 | 0.18 | 0.00 | 65 | 1009.5 |
| 20260508172018 | 15 | 74 | 6.4 | 14.5 | 0.00 | 0.18 | 0.00 | 67 | 1009.6 |
| 20260508171019 | 15 | 91 | 6.4 | 16.1 | 0.00 | 0.18 | 0.00 | 69 | 1009.8 |
| 20260508170019 | 15 | 73 | 6.4 | 14.5 | 0.00 | 0.18 | 0.00 | 67 | 1009.8 |
| 20260508165019 | 15 | 80 | 4.8 | 14.5 | 0.00 | 0.18 | 0.00 | 65 | 1010.0 |
| 20260508164056 | 15 | 75 | 6.4 | 16.1 | 0.00 | 0.18 | 0.00 | 66 | 1010.2 |
| 20260508163036 | 15 | 85 | 4.8 | 16.1 | 0.00 | 0.18 | 0.00 | 65 | 1010.3 |
| 20260508162016 | 15 | 83 | 4.8 | 16.1 | 0.00 | 0.18 | 0.00 | 65 | 1010.4 |
| 20260508161019 | 15 | 87 | 4.8 | 11.3 | 0.00 | 0.18 | 0.00 | 67 | 1010.4 |
| 20260508160020 | 15 | 73 | 6.4 | 16.1 | 0.00 | 0.18 | 0.00 | 67 | 1010.4 |
| 20260508155017 | 14 | 65 | 4.8 | 14.5 | 0.00 | 0.18 | 0.00 | 69 | 1010.6 |
| 20260508154017 | 14 | 77 | 6.4 | 20.9 | 0.00 | 0.18 | 0.00 | 69 | 1010.6 |
| 20260508153017 | 13 | 77 | 6.4 | 16.1 | 0.00 | 0.18 | 0.00 | 72 | 1010.6 |
| 20260508152017 | 14 | 68 | 6.4 | 12.9 | 0.00 | 0.18 | 0.00 | 70 | 1010.7 |
| 20260508151018 | 14 | 79 | 4.8 | 11.3 | 0.00 | 0.18 | 0.00 | 69 | 1010.8 |
| 20260508150018 | 13 | 80 | 4.8 | 16.1 | 0.00 | 0.18 | 0.00 | 73 | 1010.7 |
| 20260508145018 | 12 | 80 | 6.4 | 11.3 | 0.00 | 0.18 | 0.00 | 77 | 1010.8 |
| 20260508144018 | 12 | 75 | 4.8 | 11.3 | 0.00 | 0.18 | 0.00 | 78 | 1010.9 |
| 20260508143018 | 12 | 54 | 3.2 | 11.3 | 0.00 | 0.18 | 0.00 | 80 | 1010.9 |
| 20260508142018 | 11 | 72 | 4.8 | 9.7 | 0.00 | 0.18 | 0.00 | 81 | 1010.9 |
| 20260508141019 | 11 | 75 | 3.2 | 9.7 | 0.00 | 0.18 | 0.00 | 83 | 1010.8 |
| 20260508140019 | 11 | 67 | 3.2 | 6.4 | 0.00 | 0.18 | 0.00 | 85 | 1010.8 |